Regional Weather Roundup
Issued by NWS Charleston, SC

Home | Current Version | Previous Version | Text Only | Print | Product List | Glossary On
Versions: 1 2 3 4 5 6 7 8 9 10 11 12 13 14 15 16 17 18 19 20 21 22 23 24 25 26 27 28 29 30 31 32 33 34 35 36 37 38 39 40 41 42 43 44 45 46 47 48 49 50
000
ASUS42 KCHS 261728
RWRCHS

REGIONAL WEATHER ROUNDUP
NATIONAL WEATHER SERVICE CHARLESTON SC
100 PM EDT TUE JUL 26 2016

NOTE: "FAIR" INDICATES FEW OR NO CLOUDS BELOW 12,000 FEET WITH NO
SIGNIFICANT WEATHER AND/OR OBSTRUCTIONS TO VISIBILITY.

NOT ALL STATIONS ARE QUALITY CONTROLLED. USE DATA WITH CAUTION...
ESPECIALLY DEWPOINT OBSERVATIONS.

SCZ027-030-031-034>040-042>050-261800-
...SOUTHEAST SOUTH CAROLINA...

CITY           SKY/WX    TMP DP  RH WIND       PRES   REMARKS
N CHARLESTON   MOSUNNY   94  71  47 VRB5      30.04F HX 101
WATERFRONT PRK   N/A     91  71  51 SW5       30.04F HX  97
MOUNT PLEASANT FAIR      91  79  66 S9        30.04F HX 107
JOHNS ISLAND     N/A     91  77  62 S13       30.04F HX 105
PINOPOLIS        N/A     90  75  62 VRB2      29.96F HX 100
MONCKS CORNER  FAIR      88  70  55 SW3       30.03F HX  92
SUMMERVILLE    NOT AVBL
BEAUFORT MCAS  MOSUNNY   96  68  39 W7        30.05F HX 101
BEAUFORT ARPT  FAIR      93  72  49 CALM      30.05F HX 100
HILTON HEAD IS MOSUNNY   97  73  46 E6        30.07F HX 107
WALTERBORO     PTSUNNY   95  70  43 NW6       30.05F HX 101
ALLENDALE      FAIR      91  72  52 CALM      30.03F HX  98

...SOUTHERN MIDLANDS AND PEE DEE...

CITY           SKY/WX    TMP DP  RH WIND       PRES   REMARKS
GEORGETOWN     FAIR      91  70  49 S5        30.04F HX  97
KINGSTREE      FAIR      95  70  43 SE3       30.02F HX 101
ORANGEBURG     SUNNY     94  72  48 W10       30.04F HX 102
BARNWELL       NOT AVBL
AIKEN          FAIR      91  68  46 W8        30.07F HX  95
MANNING        FAIR      91  73  55 SE5       30.02F HX 100
COLUMBIA       PTSUNNY   95  70  44 W3        30.01F HX 101
SUMTER         MOSUNNY   93  75  55 SW6       30.00F HX 103
FLORENCE       SUNNY     92  74  55 SW5       30.02F HX 101
MYRTLE BEACH   SUNNY     90  72  55 S17       30.05F HX  96
N MYRTLE BEACH SUNNY     88  76  67 S15       30.04F HX  99

$$

GAZ063-065-086>088-099>101-113>116-118-119-134>141-150-261800-
...SOUTHEAST GEORGIA...

CITY           SKY/WX    TMP DP  RH WIND       PRES   REMARKS
SAVANNAH ARPT  MOSUNNY   93  70  46 VRB6      30.06F HX  99
HUNTER AAF     MOSUNNY   92  78  62 VRB5      30.04F HX 107
FORT STEWART   PTSUNNY   91  73  54 S2        30.04F HX  98
STATESBORO     MOSUNNY   93  74  53 CALM      30.06F HX 102
SYLVANIA       NOT AVBL
CLAXTON        FAIR      92  72  51 S5        30.05F HX 100

...CSRA...CENTRAL AND FAR SOUTHEAST GEORGIA...

CITY           SKY/WX    TMP DP  RH WIND       PRES   REMARKS
THOMSON        NOT AVBL
AUGUSTA-BUSH   MOSUNNY   95  66  38 VRB3      30.03F HX  98
AUGUSTA-DANIEL MOSUNNY   95  68  41 VRB6      30.05F HX  99
SWAINSBORO     FAIR      91  66  43 CALM      30.06F HX  94
VIDALIA        MOSUNNY   95  68  41 S3        30.06F HX  99
EASTMAN        PTSUNNY   91  56  31 NW5       30.08F
HAZLEHURST     FAIR      93  73  52 CALM      30.05F HX 102
ALMA           MOSUNNY   92  72  51 S5        30.07F HX  99
WAYCROSS       MOSUNNY   95  74  50 S5        30.06F HX 106
JESUP          FAIR      95  77  55 W3        30.06F HX 109
BAXLEY         FAIR      93  77  59 W3        30.06F HX 107
BRUNSWICK      SUNNY     93  77  59 S7        30.06F HX 107
SAINT SIMONS   SUNNY     90  74  59 SE12      30.08F HX  99

$$

SCZ027-028-034-036>038-045-046-048>050-GAZ119-141-261800-
...LAKE AND SUPPLEMENTAL COASTAL OBSERVATIONS...

STATION/POSITION TIME  TEMP    WIND        PRES    WAVE   SWELL
                       AIR SEA DIR/SP/G            HT/PER HT/PER/DIR
                 (UTC) (F)     (DEG/KT/KT) (MB)    (FT/S) (FT/S/D)
WINYAH BAY       1600   90     220/  5     1017.0S
LAKE MURRAY      NOT AVBL
ACE BASIN NERRS  1645   92     210/  1     1018.0S
FORT PULASKI     1700   89 87  180/  5/  8 1018.5F
SAPELO ISLAND    1700   90     180/  8     1018.0F

$$

ANZ835-935-AMZ111-154-330-350-352-354-370-450-454-472-261800-
...C-MAN AND BUOY OBSERVATIONS...

STATION/POSITION TIME  TEMP    WIND        PRES    WAVE   SWELL
                       AIR SEA DIR/SP/G            HT/PER HT/PER/DIR
                 (UTC) (F)     (DEG/KT/KT) (MB)    (FT/S) (FT/S/D)
BUOY 41004       1650   85 86  240/ 10/ 12 1017.6F   2/ 4   2/110/ 8
BUOY 41008       1650   84 87  200/  6/  6 1018.7F   2/ 4   2/180/ 4
FOLLY BEACH CMAN 1700   86     200/ 11/ 13 1017.9F
CAPERS NEARSHORE 1708   84 85  220/ 12/ 14 1017.4F
FRIPP NEARSHORE  1708   85 87  200/ 10/ 14 1017.4F


STATION/POSITION TIME  TEMP    WIND        PRES    WAVE   SWELL
                       AIR SEA DIR/SP/G            HT/PER HT/PER/DIR
                 (UTC) (F)     (DEG/KT/KT) (MB)    (FT/S) (FT/S/D)
5E ST. MARYS GA  1701      88                N/A     2/ 8
FRYING PAN BUOY  1700   84 85  240/ 10/ 12 1017.5F
BUOY 41025       1650   83 84  240/ 19/ 23 1015.5F   5/ 5   2/180/ 8
CAPE LOOKOUT NC  1700   86     230/ 13/ 17 1016.3F
BUOY 41002       1650   84 84  270/ 10/ 12 1019.0F   3/ 4   2/140/ 8
BUOY 41010       1620   85 87  170/  4/  4 1019.9S
ST AUGUSTINE FL  1700   84 85  120/ 11/ 13 1019.6F


$$




USA.gov is the U.S. government's official web portal to all federal, state and local government web resources and services.